Location: Lobos
(35.3000°S, 59.0940°W)
Time: 06:09:57
(UTC-03:00)

STARLINK-1722 - Pass Details

Date: 21 September 2020
Orbit: 378 x 381 km, 53.0° (Epoch: 22 October)

Event Time Altitude Azimuth Distance (km) Brightness Sun altitude
Rises 20:33:22 0° 218° (SW) 2,281 7.6 -21.1°
Reaches altitude 10° 20:35:33 10° 208° (SSW) 1,420 6.3 -21.6°
Enters shadow 20:37:14 24° 185° (S) 861 4.8 -21.9°
